SWA239 KLGA-KMKE

Flight info

Callsign SWA239
Flight time N/A
Altitude 32000
Route NEWEL J60 DJB CRL PEGEE GETCH LYSTR SUDDS
Aircraft B38M/M-SDE1FGHILORVWXY/HB1

Departure

Time N/A
Airport LaGuardia Airport (KLGA)

Arrival

Time 2026-04-27 20:54
Airport General Mitchell International Airport (KMKE)
Time Latitude Longitude Altitude Speed Heading
2026-04-27 20:10 42.12846 -83.56197 32040 ft 421 kts 311°
2026-04-27 20:10 42.14965 -83.58955 32036 ft 421 kts 311°
2026-04-27 20:10 42.19168 -83.64433 32028 ft 421 kts 311°
2026-04-27 20:11 42.23378 -83.69929 32020 ft 421 kts 311°
2026-04-27 20:11 42.27581 -83.75428 32022 ft 421 kts 311°
2026-04-27 20:12 42.31790 -83.80945 32025 ft 422 kts 311°
2026-04-27 20:12 42.35999 -83.86473 32025 ft 422 kts 311°
2026-04-27 20:13 42.40181 -83.91976 32025 ft 422 kts 311°
2026-04-27 20:13 42.44391 -83.97526 32016 ft 423 kts 310°
2026-04-27 20:14 42.48609 -84.03099 32016 ft 423 kts 310°
2026-04-27 20:14 42.52828 -84.08685 32011 ft 424 kts 310°
2026-04-27 20:15 42.57038 -84.14269 32010 ft 424 kts 310°
2026-04-27 20:15 42.61234 -84.19845 32009 ft 425 kts 310°
2026-04-27 20:16 42.65476 -84.25494 31995 ft 425 kts 310°
2026-04-27 20:16 42.69678 -84.31102 31993 ft 426 kts 310°
2026-04-27 20:17 42.73901 -84.36748 31989 ft 426 kts 309°
2026-04-27 20:17 42.78129 -84.42413 31989 ft 427 kts 309°
2026-04-27 20:18 42.82364 -84.48098 31994 ft 427 kts 309°
2026-04-27 20:18 42.86601 -84.53799 31991 ft 428 kts 309°
2026-04-27 20:19 42.90831 -84.59501 31989 ft 428 kts 309°
2026-04-27 20:19 42.95070 -84.65226 31977 ft 429 kts 309°
2026-04-27 20:20 42.99269 -84.70908 31783 ft 418 kts 308°
2026-04-27 20:20 43.01318 -84.73686 31545 ft 412 kts 308°
2026-04-27 20:20 43.03344 -84.76435 31299 ft 410 kts 308°
2026-04-27 20:21 43.05336 -84.79139 31058 ft 409 kts 308°
2026-04-27 20:21 43.07353 -84.81880 30833 ft 408 kts 308°
2026-04-27 20:21 43.09365 -84.84616 30602 ft 407 kts 308°
2026-04-27 20:21 43.11370 -84.87355 30366 ft 406 kts 307°
2026-04-27 20:22 43.13012 -84.90395 30113 ft 390 kts 290°
2026-04-27 20:22 43.13847 -84.93842 29873 ft 378 kts 274°
2026-04-27 20:22 43.14151 -84.97404 29625 ft 376 kts 271°
2026-04-27 20:22 43.14368 -85.00976 29376 ft 375 kts 269°
2026-04-27 20:23 43.14526 -85.04532 29128 ft 374 kts 269°
2026-04-27 20:23 43.14656 -85.08091 28878 ft 373 kts 268°
2026-04-27 20:23 43.14767 -85.11632 28632 ft 372 kts 268°
2026-04-27 20:23 43.14868 -85.15169 28391 ft 371 kts 268°
2026-04-27 20:24 43.14962 -85.18694 28154 ft 369 kts 268°
2026-04-27 20:24 43.15053 -85.22195 27950 ft 368 kts 267°
2026-04-27 20:24 43.15141 -85.25669 27914 ft 368 kts 267°
2026-04-27 20:24 43.15229 -85.29175 27930 ft 369 kts 267°
2026-04-27 20:25 43.15317 -85.32729 27928 ft 368 kts 267°
2026-04-27 20:25 43.15402 -85.36194 27929 ft 368 kts 267°
2026-04-27 20:25 43.15486 -85.39697 27926 ft 368 kts 267°
2026-04-27 20:25 43.15569 -85.43201 27926 ft 368 kts 267°
2026-04-27 20:26 43.15652 -85.46707 27925 ft 368 kts 267°
2026-04-27 20:26 43.15733 -85.50210 27924 ft 369 kts 267°
2026-04-27 20:26 43.15813 -85.53728 27922 ft 368 kts 267°
2026-04-27 20:26 43.15892 -85.57228 27921 ft 368 kts 267°
2026-04-27 20:27 43.15970 -85.60735 27913 ft 368 kts 267°
2026-04-27 20:27 43.16047 -85.64244 27905 ft 369 kts 266°
2026-04-27 20:27 43.16123 -85.67745 27906 ft 368 kts 266°
2026-04-27 20:27 43.16198 -85.71258 27896 ft 369 kts 266°
2026-04-27 20:28 43.16272 -85.74765 27893 ft 368 kts 266°
2026-04-27 20:28 43.16345 -85.78274 27867 ft 368 kts 266°
2026-04-27 20:28 43.16416 -85.81785 27861 ft 369 kts 266°
2026-04-27 20:28 43.16463 -85.84109 27849 ft 369 kts 266°
2026-04-27 20:29 43.16557 -85.88803 27836 ft 369 kts 266°
2026-04-27 20:29 43.16624 -85.92267 27822 ft 368 kts 266°
2026-04-27 20:29 43.16692 -85.95779 27099 ft 371 kts 266°
2026-04-27 20:29 43.16761 -85.99340 26300 ft 376 kts 266°
2026-04-27 20:30 43.16829 -86.02940 25513 ft 381 kts 267°
2026-04-27 20:30 43.16824 -86.06541 24760 ft 374 kts 264°
2026-04-27 20:30 43.16764 -86.10066 24068 ft 366 kts 265°
2026-04-27 20:30 43.16712 -86.13513 23408 ft 358 kts 265°
2026-04-27 20:31 43.16664 -86.16890 22659 ft 351 kts 265°
2026-04-27 20:31 43.16617 -86.20192 22039 ft 341 kts 265°
2026-04-27 20:31 43.16572 -86.23368 21642 ft 327 kts 265°
2026-04-27 20:31 43.16528 -86.26451 21302 ft 322 kts 265°
2026-04-27 20:32 43.16483 -86.29501 20944 ft 318 kts 265°
2026-04-27 20:32 43.16438 -86.32507 20609 ft 314 kts 265°
2026-04-27 20:32 43.16393 -86.35479 20285 ft 309 kts 265°
2026-04-27 20:32 43.16347 -86.38401 19964 ft 305 kts 265°
2026-04-27 20:33 43.16302 -86.41298 19647 ft 302 kts 265°
2026-04-27 20:33 43.16256 -86.44150 19335 ft 298 kts 265°
2026-04-27 20:33 43.16211 -86.46967 19035 ft 294 kts 265°
2026-04-27 20:33 43.16165 -86.49750 18730 ft 290 kts 265°
2026-04-27 20:34 43.16119 -86.52502 18429 ft 287 kts 266°
2026-04-27 20:34 43.16072 -86.55241 18121 ft 290 kts 266°
2026-04-27 20:34 43.16025 -86.57991 17774 ft 295 kts 266°
2026-04-27 20:34 43.15975 -86.60811 17439 ft 297 kts 266°
2026-04-27 20:35 43.15925 -86.63637 17126 ft 297 kts 266°
2026-04-27 20:35 43.15874 -86.66468 16808 ft 297 kts 265°
2026-04-27 20:35 43.15823 -86.69296 16623 ft 297 kts 265°
2026-04-27 20:35 43.15771 -86.72132 16401 ft 298 kts 265°
2026-04-27 20:36 43.15718 -86.74962 16118 ft 297 kts 265°
2026-04-27 20:36 43.15665 -86.77788 15816 ft 297 kts 265°
2026-04-27 20:36 43.15611 -86.80614 15509 ft 297 kts 265°
2026-04-27 20:36 43.15556 -86.83442 15187 ft 297 kts 264°
2026-04-27 20:37 43.15500 -86.86270 14867 ft 297 kts 264°
2026-04-27 20:37 43.15444 -86.89089 14550 ft 296 kts 264°
2026-04-27 20:37 43.15387 -86.91915 14234 ft 296 kts 264°
2026-04-27 20:37 43.15330 -86.94731 14051 ft 296 kts 264°
2026-04-27 20:38 43.15273 -86.97553 14040 ft 297 kts 264°
2026-04-27 20:38 43.15214 -87.00386 14043 ft 298 kts 264°
2026-04-27 20:38 43.15153 -87.03222 14019 ft 298 kts 264°
2026-04-27 20:38 43.15089 -87.06070 13493 ft 299 kts 264°
2026-04-27 20:39 43.15024 -87.08891 12877 ft 294 kts 263°
2026-04-27 20:39 43.14960 -87.11669 12300 ft 290 kts 263°
2026-04-27 20:39 43.14898 -87.14383 11844 ft 282 kts 262°
2026-04-27 20:39 43.14836 -87.17046 11371 ft 277 kts 262°
2026-04-27 20:40 43.14774 -87.19676 11024 ft 276 kts 261°
2026-04-27 20:40 43.14711 -87.22305 10694 ft 276 kts 261°
2026-04-27 20:40 43.14648 -87.24928 10542 ft 276 kts 261°
2026-04-27 20:40 43.14585 -87.27562 10398 ft 277 kts 260°
2026-04-27 20:41 43.14521 -87.30193 10263 ft 277 kts 260°
2026-04-27 20:41 43.14456 -87.32830 10128 ft 277 kts 260°
2026-04-27 20:41 43.14390 -87.35472 9882 ft 278 kts 260°
2026-04-27 20:41 43.14490 -87.38146 9558 ft 285 kts 269°
2026-04-27 20:42 43.14735 -87.40840 9235 ft 285 kts 268°
2026-04-27 20:42 43.14962 -87.43526 8935 ft 283 kts 267°
2026-04-27 20:42 43.15178 -87.46202 8645 ft 282 kts 267°
2026-04-27 20:42 43.15384 -87.48830 8340 ft 272 kts 266°
2026-04-27 20:43 43.15575 -87.51313 8103 ft 258 kts 266°
2026-04-27 20:43 43.15755 -87.53701 7835 ft 249 kts 265°
2026-04-27 20:43 43.15924 -87.56001 7552 ft 246 kts 265°
2026-04-27 20:43 43.16092 -87.58283 7286 ft 242 kts 265°
2026-04-27 20:44 43.16260 -87.60561 7021 ft 239 kts 265°
2026-04-27 20:44 43.16425 -87.62816 6764 ft 236 kts 265°
2026-04-27 20:44 43.16588 -87.65035 6509 ft 233 kts 265°
2026-04-27 20:44 43.16749 -87.67229 6269 ft 230 kts 264°
2026-04-27 20:45 43.16907 -87.69384 6074 ft 224 kts 264°
2026-04-27 20:45 43.17060 -87.71467 5960 ft 215 kts 264°
2026-04-27 20:45 43.17206 -87.73466 5836 ft 206 kts 264°
2026-04-27 20:45 43.17345 -87.75389 5722 ft 200 kts 263°
2026-04-27 20:46 43.17481 -87.77276 5632 ft 199 kts 263°
2026-04-27 20:46 43.17616 -87.79161 5531 ft 199 kts 264°
2026-04-27 20:46 43.17752 -87.81043 5423 ft 198 kts 264°
2026-04-27 20:46 43.17806 -87.82900 5269 ft 188 kts 249°
2026-04-27 20:47 43.17260 -87.84386 5031 ft 169 kts 217°
2026-04-27 20:47 43.16287 -87.85200 4799 ft 162 kts 202°
2026-04-27 20:47 43.15232 -87.85689 4580 ft 158 kts 195°
2026-04-27 20:47 43.14168 -87.86019 4355 ft 155 kts 192°
2026-04-27 20:48 43.13116 -87.86269 4144 ft 152 kts 190°
2026-04-27 20:48 43.12436 -87.86407 4041 ft 147 kts 189°
2026-04-27 20:48 43.11100 -87.86655 3783 ft 143 kts 188°
2026-04-27 20:48 43.10128 -87.86830 3565 ft 140 kts 186°
2026-04-27 20:49 43.09164 -87.86998 3373 ft 140 kts 186°
2026-04-27 20:49 43.08197 -87.87166 3198 ft 139 kts 185°
2026-04-27 20:49 43.07268 -87.87328 3027 ft 132 kts 184°
2026-04-27 20:49 43.06415 -87.87475 2868 ft 111 kts 184°
2026-04-27 20:50 43.05681 -87.87601 2743 ft 106 kts 182°
2026-04-27 20:50 43.04956 -87.87725 2553 ft 105 kts 181°
2026-04-27 20:50 43.04237 -87.87848 2428 ft 103 kts 181°
2026-04-27 20:50 43.03527 -87.87968 2287 ft 102 kts 180°
2026-04-27 20:51 43.02821 -87.88090 2154 ft 102 kts 180°
2026-04-27 20:51 43.02111 -87.88213 2016 ft 103 kts 178°
2026-04-27 20:51 43.01388 -87.88337 1871 ft 107 kts 178°
2026-04-27 20:51 43.00644 -87.88464 1723 ft 108 kts 178°
2026-04-27 20:52 43.00141 -87.88550 1627 ft 109 kts 178°
2026-04-27 20:52 42.99376 -87.88679 1465 ft 115 kts 179°
2026-04-27 20:52 42.98558 -87.88817 1285 ft 122 kts 181°
2026-04-27 20:52 42.97694 -87.88970 1144 ft 128 kts 180°
2026-04-27 20:53 42.96804 -87.89122 959 ft 131 kts 181°
2026-04-27 20:53 42.95905 -87.89285 787 ft 130 kts 181°
2026-04-27 20:53 42.95025 -87.89436 687 ft 118 kts 180°
2026-04-27 20:53 42.94397 -87.89526 686 ft 58 kts 188°
2026-04-27 20:54 42.94028 -87.89800 690 ft 15 kts 270°
2026-04-27 20:54 42.94074 -87.89877 689 ft 12 kts 349°
2026-04-27 20:54 42.94166 -87.89894 688 ft 15 kts 352°
2026-04-27 20:55 42.94272 -87.89920 688 ft 16 kts 352°
2026-04-27 20:55 42.94362 -87.89939 687 ft 14 kts 350°
2026-04-27 20:55 42.94457 -87.89963 688 ft 14 kts 349°
2026-04-27 20:55 42.94520 -87.89954 689 ft 9 kts 46°
2026-04-27 20:56 42.94549 -87.89886 687 ft 9 kts 62°
2026-04-27 20:56 42.94584 -87.89798 690 ft 12 kts 57°
2026-04-27 20:56 42.94655 -87.89742 687 ft 12 kts 10°
2026-04-27 20:56 42.94744 -87.89727 687 ft 14 kts
2026-04-27 20:57 42.94848 -87.89710 686 ft 14 kts
2026-04-27 20:57 42.94923 -87.89708 688 ft 10 kts 345°
2026-04-27 20:57 42.94975 -87.89765 691 ft 9 kts 311°
2026-04-27 20:57 42.94982 -87.89847 691 ft 10 kts 255°
2026-04-27 20:58 42.94967 -87.89911 691 ft 2 kts 249°
2026-04-27 20:58 42.94969 -87.89932 691 ft 3 kts 293°
2026-04-27 20:58 42.94982 -87.89953 685 ft 3 kts 316°
2026-04-27 20:58 42.94989 -87.89962 688 ft 1 kts 318°
2026-04-27 20:59 42.94991 -87.89964 688 ft 0 kts 318°
2026-04-27 21:07 42.94991 -87.89963 691 ft 0 kts 318°
2026-04-27 21:09 42.94990 -87.89963 691 ft 0 kts 318°
2026-04-27 21:25 42.94990 -87.89962 691 ft 0 kts 318°